N4BHM Weather Reports


time (UTC)temp
F
wind
direction
speed
knots
gust
knots
rain 1hr
in
rain 24hr
in
rain mn
in
humidity
%
barometer
mb
20260510162502 77 245 6.1 10.4 0.00 0.00 0.00 40 1018.0
20260510162002 77 194 8.7 13.0 0.00 0.00 0.00 39 1018.0
20260510161003 77 183 5.2 8.7 0.00 0.00 0.00 39 1018.2
20260510160503 77 265 5.2 15.6 0.00 0.00 0.00 39 1018.2
20260510160002 77 293 8.7 13.0 0.00 0.00 0.00 38 1018.2
20260510155502 77 214 7.8 12.2 0.00 0.00 0.00 40 1018.2
20260510155002 76 276 6.1 8.7 0.00 0.00 0.00 40 1018.2
20260510154003 77 199 10.4 12.2 0.00 0.00 0.00 40 1018.4
20260510153503 77 206 10.4 12.2 0.00 0.00 0.00 40 1018.4
20260510152502 76 227 7.8 13.0 0.00 0.00 0.00 41 1018.3
20260510152003 76 201 8.7 11.3 0.00 0.00 0.00 40 1018.4
20260510151502 76 241 4.3 7.8 0.00 0.00 0.00 39 1018.4
20260510151002 76 226 7.8 11.3 0.00 0.00 0.00 41 1018.4
20260510150503 76 187 6.1 8.7 0.00 0.00 0.00 40 1018.4
20260510145503 75 318 6.1 8.7 0.00 0.00 0.00 39 1018.4
20260510145003 75 28 6.1 8.7 0.00 0.00 0.00 39 1018.4
20260510144502 75 336 5.2 7.8 0.00 0.00 0.00 41 1018.4
20260510144003 74 203 4.3 8.7 0.00 0.00 0.00 42 1018.4
20260510143003 73 230 8.7 13.9 0.00 0.00 0.00 43 1018.4
20260510142003 72 335 7.0 7.8 0.00 0.00 0.00 45 1018.4
20260510141003 71 232 8.7 15.6 0.00 0.00 0.00 46 1018.4
20260510140503 71 234 7.8 11.3 0.00 0.00 0.00 46 1018.4
20260510135502 70 265 4.3 12.2 0.00 0.00 0.00 48 1018.7
20260510135003 69 208 7.0 12.2 0.00 0.00 0.00 49 1018.7
20260510134503 69 238 5.2 10.4 0.00 0.00 0.00 50 1018.7
20260510134004 68 235 7.8 10.4 0.00 0.00 0.00 52 1018.4
20260510133502 67 242 6.1 12.2 0.00 0.00 0.00 52 1018.4
20260510133002 67 222 6.1 12.2 0.00 0.00 0.00 52 1018.4
20260510132503 67 322 6.1 8.7 0.00 0.00 0.00 53 1018.6
20260510132003 66 223 7.0 13.9 0.00 0.00 0.00 54 1018.6
20260510131503 66 228 6.1 13.9 0.00 0.00 0.00 55 1018.4
20260510130503 65 247 7.0 11.3 0.00 0.00 0.00 54 1018.3
20260510130003 65 196 6.1 10.4 0.00 0.00 0.00 56 1018.2
20260510125503 64 259 6.1 10.4 0.00 0.00 0.00 57 1018.1
20260510125003 63 284 7.8 10.4 0.00 0.00 0.00 59 1018.1
20260510124503 62 231 5.2 10.4 0.00 0.00 0.00 61 1018.1
20260510123503 61 221 6.1 10.4 0.00 0.00 0.00 61 1017.9
20260510123003 60 233 6.1 10.4 0.00 0.00 0.00 62 1017.9
20260510122503 60 243 5.2 7.8 0.00 0.00 0.00 64 1017.9
20260510121502 59 235 7.0 10.4 0.00 0.00 0.00 66 1017.8
20260510121003 58 210 5.2 7.8 0.00 0.00 0.00 69 1017.8
20260510120503 57 215 5.2 8.7 0.00 0.00 0.00 70 1017.9
20260510120003 56 212 6.1 8.7 0.00 0.00 0.00 72 1017.8
20260510115504 55 298 3.5 8.7 0.00 0.00 0.00 74 1017.9
20260510115003 55 196 1.7 6.1 0.00 0.00 0.00 79 1017.8
20260510114503 55 86 0.9 2.6 0.00 0.00 0.00 78 1017.7
20260510114003 54 46 0.0 2.6 0.00 0.00 0.00 79 1017.6
20260510113503 54 205 0.9 4.3 0.00 0.00 0.00 78 1017.6
20260510113002 54 356 1.7 2.6 0.00 0.00 0.00 78 1017.6
20260510112503 54 88 1.7 4.3 0.00 0.00 0.00 77 1017.5
20260510112003 54 83 0.0 2.6 0.00 0.00 0.00 78 1017.4
20260510111503 53 92 0.0 0.0 0.00 0.00 0.00 78 1017.3
20260510111003 53 92 0.9 2.6 0.00 0.00 0.00 79 1017.2
20260510110503 52 13 0.9 1.7 0.00 0.00 0.00 79 1017.1
20260510105503 52 18 1.7 2.6 0.00 0.00 0.00 80 1016.9
20260510105003 52 29 2.6 2.6 0.00 0.00 0.00 79 1016.9
20260510104503 52 20 0.0 0.0 0.00 0.00 0.00 79 1016.8
20260510103503 52 20 1.7 7.8 0.00 0.00 0.00 79 1016.7
20260510103003 52 18 3.5 4.3 0.00 0.00 0.00 79 1016.5
20260510101502 52 37 4.3 5.2 0.00 0.00 0.00 79 1016.4
20260510101004 51 341 3.5 5.2 0.00 0.00 0.00 79 1016.3
20260510100503 51 67 3.5 7.0 0.00 0.00 0.00 79 1016.2
20260510100003 52 68 3.5 5.2 0.00 0.00 0.00 78 1016.2
20260510095503 52 39 2.6 5.2 0.00 0.00 0.00 78 1016.2
20260510095003 52 57 6.1 7.0 0.00 0.00 0.00 78 1016.1
20260510094003 53 76 3.5 7.0 0.00 0.00 0.00 76 1016.0
20260510093503 54 64 3.5 6.1 0.00 0.00 0.00 74 1016.0
20260510093004 54 82 3.5 6.1 0.00 0.00 0.00 74 1015.9
20260510092503 54 170 4.3 12.2 0.00 0.00 0.00 75 1015.8
20260510091503 53 74 4.3 11.3 0.00 0.00 0.00 78 1015.7
20260510091003 52 149 4.3 7.8 0.00 0.00 0.00 76 1015.7
20260510090003 54 49 5.2 7.0 0.00 0.00 0.00 74 1015.7
20260510085503 55 34 5.2 7.0 0.00 0.00 0.00 71 1015.7
20260510085003 56 0 5.2 8.7 0.00 0.00 0.00 71 1015.7
20260510084503 56 259 2.6 6.1 0.00 0.00 0.00 70 1015.6
20260510084003 56 60 4.3 10.4 0.00 0.00 0.00 72 1015.6
20260510083503 56 344 5.2 11.3 0.00 0.00 0.00 72 1015.6
20260510083003 55 34 3.5 7.8 0.00 0.00 0.00 72 1015.6
20260510082503 55 193 4.3 6.1 0.00 0.00 0.00 74 1015.6
20260510082003 55 75 3.5 11.3 0.00 0.00 0.00 74 1015.6
20260510081504 54 342 4.3 11.3 0.00 0.00 0.00 73 1015.5
20260510081003 55 38 4.3 6.1 0.00 0.00 0.00 72 1015.4
20260510080503 55 38 3.5 5.2 0.00 0.00 0.00 72 1015.4
20260510080003 55 343 4.3 7.8 0.00 0.00 0.00 74 1015.2
20260510075503 54 160 4.3 7.0 0.00 0.00 0.00 73 1015.2
20260510075003 54 70 4.3 7.8 0.00 0.00 0.00 72 1015.2
20260510074504 55 73 4.3 6.1 0.00 0.00 0.00 73 1015.2
20260510074003 55 355 4.3 7.8 0.00 0.00 0.00 71 1015.1
20260510073503 55 24 2.6 4.3 0.00 0.00 0.00 70 1015.0
20260510073003 55 117 1.7 5.2 0.00 0.00 0.00 71 1015.1
20260510072503 55 178 2.6 6.1 0.00 0.00 0.00 71 1015.1
20260510072004 55 203 3.5 5.2 0.00 0.00 0.00 71 1015.1
20260510071503 55 149 1.7 2.6 0.00 0.00 0.00 70 1015.0
20260510070503 56 71 1.7 7.0 0.00 0.00 0.00 69 1015.0
20260510065503 56 39 1.7 6.1 0.00 0.00 0.00 69 1015.1
20260510065004 56 141 0.9 2.6 0.00 0.00 0.00 69 1015.1
20260510064503 56 132 0.0 2.6 0.00 0.00 0.00 68 1015.1
20260510064003 56 82 0.0 0.0 0.00 0.00 0.00 68 1015.1
20260510063003 56 213 0.0 0.0 0.00 0.00 0.00 68 1015.2
20260510062503 56 213 0.9 1.7 0.00 0.00 0.00 68 1015.2
20260510062003 56 280 1.7 1.7 0.00 0.00 0.00 68 1015.3
20260510061503 56 181 0.9 2.6 0.00 0.00 0.00 68 1015.3
20260510060503 56 265 1.7 2.6 0.00 0.00 0.00 67 1015.3
20260510060003 56 300 0.9 2.6 0.00 0.00 0.00 67 1015.3
20260510055503 56 251 0.0 1.7 0.00 0.00 0.00 66 1015.4
20260510055003 56 325 0.9 2.6 0.00 0.00 0.00 66 1015.3
20260510054504 56 313 2.6 4.3 0.00 0.00 0.00 67 1015.4
20260510054004 56 304 2.6 2.6 0.00 0.00 0.00 67 1015.3
20260510053503 56 271 2.6 4.3 0.00 0.00 0.00 67 1015.3
20260510053003 56 291 2.6 2.6 0.00 0.00 0.00 67 1015.3
20260510052503 55 301 1.7 2.6 0.00 0.00 0.00 68 1015.4
20260510052004 56 280 2.6 2.6 0.00 0.00 0.00 67 1015.5
20260510051003 56 321 2.6 2.6 0.00 0.00 0.00 67 1015.4
20260510050503 56 280 5.2 6.1 0.00 0.00 0.00 67 1015.5
20260510050003 56 232 4.3 4.3 0.00 0.00 0.00 66 1015.4
20260510045503 56 276 1.7 2.6 0.00 0.00 0.00 66 1015.4
20260510043503 57 257 3.5 4.3 0.00 0.00 0.00 65 1015.3
20260510043003 57 270 0.9 4.3 0.00 0.00 0.00 65 1015.4
20260510042003 56 298 2.6 4.3 0.00 0.00 0.00 65 1015.4
20260510040504 57 246 2.6 4.3 0.00 0.00 0.00 64 1015.3
20260510040004 57 225 0.0 1.7 0.00 0.00 0.00 64 1015.3
20260510035503 57 234 2.6 5.2 0.00 0.00 0.00 64 1015.4
20260510035003 57 273 2.6 2.6 0.00 0.00 0.00 63 1015.3
20260510034503 58 256 2.6 4.3 0.00 0.00 0.00 63 1015.3
20260510034003 58 277 0.0 0.0 0.00 0.00 0.00 62 1015.3
20260510033503 58 277 0.0 0.0 0.00 0.00 0.00 61 1015.2
20260510032503 58 277 0.9 4.3 0.00 0.00 0.00 61 1015.1
20260510032003 58 301 3.5 4.3 0.00 0.00 0.00 61 1015.1
20260510031503 58 288 1.7 2.6 0.00 0.00 0.00 61 1015.1
20260510031003 59 221 4.3 4.3 0.00 0.00 0.00 60 1015.1
20260510030503 59 278 3.5 4.3 0.00 0.00 0.00 60 1014.9
20260510030003 59 240 1.7 4.3 0.00 0.00 0.00 59 1015.0
20260510025503 59 160 0.0 0.0 0.00 0.00 0.00 59 1015.0
20260510024503 60 160 0.0 0.0 0.00 0.00 0.00 58 1014.9
20260510024003 60 160 0.0 0.0 0.00 0.00 0.00 57 1014.7
20260510023504 61 160 0.0 0.0 0.00 0.00 0.00 56 1014.7
20260510023003 61 160 0.0 0.0 0.00 0.00 0.00 56 1014.6
20260510022503 61 160 0.0 0.9 0.00 0.00 0.00 56 1014.6
20260510022003 61 211 1.7 4.3 0.00 0.00 0.00 55 1014.5
20260510021504 62 198 4.3 4.3 0.00 0.00 0.00 54 1014.4
20260510021004 62 183 1.7 2.6 0.00 0.00 0.00 53 1014.3
20260510020504 61 114 1.7 5.2 0.00 0.00 0.00 54 1014.3
20260510020004 61 7 2.6 4.3 0.00 0.00 0.00 54 1014.3
20260510015004 61 298 0.0 0.0 0.00 0.00 0.00 55 1014.2
20260510014503 61 298 0.0 0.0 0.00 0.00 0.00 55 1014.1
20260510013504 62 298 0.0 0.0 0.00 0.00 0.00 54 1013.9
20260510013004 62 298 0.0 0.0 0.00 0.00 0.00 54 1013.8
20260510012503 62 298 0.0 0.0 0.00 0.00 0.00 53 1013.6
20260510012004 62 298 0.0 0.0 0.00 0.00 0.00 53 1013.6
20260510011503 63 298 0.0 0.0 0.00 0.00 0.00 52 1013.6
20260510011004 63 298 0.0 0.0 0.00 0.00 0.00 51 1013.5
20260510010004 63 298 0.0 0.0 0.00 0.00 0.00 50 1013.4
20260510005503 63 272 0.0 5.2 0.00 0.00 0.00 51 1013.4
20260510005003 63 354 0.0 1.7 0.00 0.00 0.00 49 1013.3
20260510004004 63 316 0.9 4.3 0.00 0.00 0.00 51 1013.2
20260510003004 64 211 1.7 2.6 0.00 0.00 0.00 52 1013.3
20260510002504 64 196 0.0 0.0 0.00 0.00 0.00 50 1013.3
20260510001504 65 196 0.9 4.3 0.00 0.00 0.00 50 1013.2
20260510001004 65 208 0.0 1.7 0.00 0.00 0.00 49 1013.0
20260510000503 66 189 0.0 0.0 0.00 0.00 0.00 48 1013.0
20260510000004 66 240 0.9 1.7 0.00 0.00 0.00 47 1012.8
20260509235504 66 299 0.0 0.0 0.00 0.00 0.00 47 1012.6
20260509235003 67 299 0.0 0.0 0.00 0.00 0.00 45 1012.6
20260509234503 67 299 0.0 0.0 0.00 0.00 0.00 45 1012.5
20260509234004 67 299 1.7 2.6 0.00 0.00 0.00 44 1012.5
20260509233504 67 337 0.9 4.3 0.00 0.00 0.00 44 1012.4
20260509233004 67 340 2.6 6.1 0.00 0.00 0.00 43 1012.4
20260509232503 68 334 0.9 5.2 0.00 0.00 0.00 43 1012.4
20260509232003 68 189 2.6 4.3 0.00 0.00 0.00 42 1012.3
20260509231503 68 282 1.7 8.7 0.00 0.00 0.00 42 1012.4
20260509230504 69 324 3.5 6.1 0.00 0.00 0.00 40 1012.1
20260509230003 69 237 0.9 6.1 0.00 0.00 0.00 40 1012.1
20260509225504 69 219 2.6 7.0 0.00 0.00 0.00 40 1012.0
20260509225003 69 265 4.3 6.1 0.00 0.00 0.00 40 1012.0
20260509224004 69 217 3.5 6.1 0.00 0.00 0.00 40 1012.1
20260509223503 69 223 5.2 8.7 0.00 0.00 0.00 40 1012.0
20260509222504 69 194 6.1 11.3 0.00 0.00 0.00 40 1012.0
20260509222004 69 90 0.0 2.6 0.00 0.00 0.00 42 1012.0
20260509221004 70 80 0.9 4.3 0.00 0.00 0.00 42 1012.0
20260509220504 70 201 1.7 6.1 0.00 0.00 0.00 41 1011.9
20260509220004 70 23 5.2 7.0 0.00 0.00 0.00 41 1012.0
20260509215504 70 216 1.7 4.3 0.00 0.00 0.00 43 1011.9
20260509215004 70 262 2.6 6.1 0.00 0.00 0.00 42 1011.8
20260509214504 70 273 7.0 13.0 0.00 0.00 0.00 41 1011.8
20260509213503 71 215 4.3 6.1 0.00 0.00 0.00 41 1011.8
20260509213005 71 206 4.3 6.1 0.00 0.00 0.00 41 1011.7
20260509212504 71 145 4.3 7.0 0.00 0.00 0.00 40 1011.6
20260509212003 71 200 4.3 6.1 0.00 0.00 0.00 40 1011.5
20260509211003 72 283 2.6 7.0 0.00 0.00 0.00 40 1011.5
20260509210503 72 240 2.6 11.3 0.00 0.00 0.00 39 1011.4
20260509205503 72 201 6.1 13.0 0.00 0.00 0.00 39 1011.4
20260509204504 72 221 11.3 13.0 0.00 0.00 0.00 38 1011.3
20260509204004 72 152 4.3 8.7 0.00 0.00 0.00 39 1011.2
20260509203504 72 297 7.8 14.8 0.00 0.00 0.00 37 1011.3
20260509203004 72 157 11.3 14.8 0.00 0.00 0.00 37 1011.3
20260509202504 72 260 6.1 10.4 0.00 0.00 0.00 38 1011.3
20260509202004 72 199 8.7 18.2 0.00 0.00 0.00 40 1011.3
20260509201503 71 223 10.4 18.2 0.00 0.00 0.00 41 1011.3
20260509201004 71 215 8.7 12.2 0.00 0.00 0.00 41 1011.2
20260509200003 71 271 6.1 12.2 0.00 0.00 0.00 39 1011.3
20260509195504 71 256 6.1 10.4 0.00 0.00 0.00 40 1011.4
20260509195004 71 193 10.4 14.8 0.00 0.00 0.00 41 1011.3
20260509194504 71 221 8.7 18.2 0.00 0.00 0.00 40 1011.4
20260509194004 71 248 9.6 12.2 0.00 0.00 0.00 41 1011.3
20260509193004 71 219 8.7 11.3 0.00 0.00 0.00 42 1011.2
20260509192503 70 207 7.8 12.2 0.00 0.00 0.00 44 1011.3
20260509192004 70 197 4.3 6.1 0.00 0.00 0.00 44 1011.4
20260509191504 70 231 5.2 6.1 0.00 0.00 0.00 43 1011.5
20260509191004 70 248 2.6 7.0 0.00 0.00 0.00 43 1011.6
20260509190504 70 331 4.3 7.0 0.00 0.00 0.00 42 1011.5
20260509184504 70 249 6.1 11.3 0.00 0.00 0.00 42 1011.6
20260509184004 70 233 7.8 11.3 0.00 0.00 0.00 42 1011.6
20260509183504 70 198 6.1 12.2 0.00 0.00 0.00 44 1011.6
20260509182504 70 239 10.4 11.3 0.00 0.00 0.00 44 1011.9
20260509182004 69 207 4.3 7.8 0.00 0.00 0.00 51 1012.0
20260509181503 69 169 1.7 4.3 0.00 0.00 0.00 47 1012.1
20260509181004 69 199 0.0 1.7 0.00 0.00 0.00 49 1012.2
20260509180504 69 28 0.0 2.6 0.00 0.00 0.00 50 1012.2
20260509180004 69 342 0.9 5.2 0.00 0.00 0.00 48 1012.2
20260509175504 69 76 4.3 7.0 0.00 0.00 0.00 48 1012.2
20260509175003 69 119 2.6 13.9 0.00 0.00 0.00 51 1012.3
20260509174503 69 157 4.3 8.7 0.00 0.00 0.00 52 1012.4
20260509174003 68 200 4.3 7.0 0.00 0.00 0.00 50 1012.4
20260509173003 67 74 2.6 7.8 0.00 0.00 0.00 50 1012.5
20260509172502 68 351 3.5 6.1 0.00 0.00 0.00 52 1012.6
20260509172002 69 72 4.3 4.3 0.00 0.00 0.00 52 1012.7
20260509171502 69 44 0.0 0.0 0.00 0.00 0.00 54 1012.6
20260509171003 68 44 0.0 7.0 0.00 0.00 0.00 58 1012.7
20260509170502 67 125 3.5 6.1 0.00 0.00 0.00 56 1012.6
20260509170003 67 23 1.7 4.3 0.00 0.00 0.00 59 1013.0
20260509165503 67 120 2.6 5.2 0.00 0.00 0.00 57 1013.0
20260509165002 67 39 1.7 4.3 0.00 0.00 0.00 56 1013.1
20260509164502 67 72 1.7 2.6 0.00 0.00 0.00 57 1013.2
20260509164003 67 11 3.5 4.3 0.00 0.00 0.00 56 1013.3
20260509163002 67 323 5.2 6.1 0.00 0.00 0.00 56 1013.3